Time,TemperatureF,DewpointF,PressureIn,WindDirection,WindDirectionDegrees,WindSpeedMPH,WindSpeedGustMPH,Humidity,HourlyPrecipIn,Conditions,Clouds,dailyrainin,SolarRadiationWatts/m^2,SoftwareType,DateUTC
2013-01-20 00:14:00,62.4,58.0,30.14,NNE,19,2.0,6.0,86,0.00,,,0.00,0,weatherlink.com 1.10,2013-01-20 05:14:00,
2013-01-20 00:29:00,62.3,58.0,30.14,North,11,2.0,5.0,86,0.00,,,0.00,0,weatherlink.com 1.10,2013-01-20 05:29:00,
2013-01-20 00:44:00,62.2,58.0,30.14,NNE,33,1.0,4.0,86,0.00,,,0.00,0,weatherlink.com 1.10,2013-01-20 05:44:00,
2013-01-20 00:59:00,62.1,58.0,30.13,North,360,4.0,5.0,87,0.00,,,0.00,0,weatherlink.com 1.10,2013-01-20 05:59:00,
2013-01-20 01:14:00,61.6,58.0,30.12,NNE,19,1.0,8.0,88,0.00,,,0.00,0,weatherlink.com 1.10,2013-01-20 06:14:00,
2013-01-20 01:29:00,61.4,58.0,30.12,NNE,21,1.0,3.0,89,0.00,,,0.00,0,weatherlink.com 1.10,2013-01-20 06:29:00,
2013-01-20 01:44:00,61.3,58.0,30.11,NNE,24,3.0,6.0,89,0.00,,,0.00,0,weatherlink.com 1.10,2013-01-20 06:44:00,
2013-01-20 01:59:00,60.9,58.0,30.11,North,355,0.0,4.0,90,0.01,,,0.01,0,weatherlink.com 1.10,2013-01-20 06:59:00,
2013-01-20 02:14:00,60.7,58.0,30.11,NNE,14,0.0,6.0,91,0.01,,,0.01,0,weatherlink.com 1.10,2013-01-20 07:14:00,
2013-01-20 02:29:00,60.6,58.0,30.11,NNE,25,2.0,6.0,91,0.01,,,0.01,0,weatherlink.com 1.10,2013-01-20 07:29:00,
2013-01-20 02:44:00,60.5,58.0,30.09,NE,37,4.0,7.0,92,0.01,,,0.01,0,weatherlink.com 1.10,2013-01-20 07:44:00,
2013-01-20 02:59:00,60.4,58.0,30.10,NE,34,4.0,8.0,92,0.00,,,0.01,0,weatherlink.com 1.10,2013-01-20 07:59:00,
2013-01-20 03:14:00,60.6,58.0,30.10,NNE,22,1.0,6.0,92,0.00,,,0.01,0,weatherlink.com 1.10,2013-01-20 08:14:00,
2013-01-20 03:29:00,60.7,58.0,30.11,North,9,0.0,3.0,92,0.00,,,0.01,0,weatherlink.com 1.10,2013-01-20 08:29:00,
2013-01-20 03:44:00,60.7,58.0,30.11,North,5,0.0,1.0,92,0.00,,,0.01,0,weatherlink.com 1.10,2013-01-20 08:44:00,
2013-01-20 03:59:00,60.7,58.0,30.11,North,5,0.0,1.0,92,0.00,,,0.01,0,weatherlink.com 1.10,2013-01-20 08:59:00,
2013-01-20 04:14:00,60.4,58.0,30.09,North,5,1.0,3.0,92,0.00,,,0.01,0,weatherlink.com 1.10,2013-01-20 09:14:00,
2013-01-20 04:29:00,60.2,58.0,30.09,North,360,3.0,5.0,92,0.00,,,0.01,0,weatherlink.com 1.10,2013-01-20 09:29:00,
2013-01-20 04:44:00,60.0,58.0,30.09,NNW,338,0.0,5.0,93,0.00,,,0.01,0,weatherlink.com 1.10,2013-01-20 09:44:00,
2013-01-20 04:59:00,60.0,58.0,30.10,NNW,327,1.0,2.0,93,0.00,,,0.01,0,weatherlink.com 1.10,2013-01-20 09:59:00,
2013-01-20 05:14:00,60.0,58.0,30.10,NW,322,0.0,2.0,93,0.00,,,0.01,0,weatherlink.com 1.10,2013-01-20 10:14:00,
2013-01-20 05:29:00,59.9,58.0,30.10,North,5,0.0,2.0,93,0.00,,,0.01,0,weatherlink.com 1.10,2013-01-20 10:29:00,
2013-01-20 05:44:00,60.0,58.0,30.11,North,9,0.0,1.0,93,0.00,,,0.01,0,weatherlink.com 1.10,2013-01-20 10:44:00,
2013-01-20 05:59:00,60.1,58.0,30.11,North,5,0.0,2.0,93,0.00,,,0.01,0,weatherlink.com 1.10,2013-01-20 10:59:00,
2013-01-20 06:14:00,60.0,58.0,30.11,NNW,341,0.0,4.0,93,0.00,,,0.01,0,weatherlink.com 1.10,2013-01-20 11:14:00,
2013-01-20 06:29:00,59.8,58.0,30.11,NW,325,1.0,5.0,93,0.00,,,0.01,0,weatherlink.com 1.10,2013-01-20 11:29:00,
2013-01-20 06:44:00,59.7,58.0,30.11,North,9,0.0,4.0,93,0.00,,,0.01,0,weatherlink.com 1.10,2013-01-20 11:44:00,
2013-01-20 06:59:00,59.7,58.0,30.12,NW,315,2.0,5.0,93,0.00,,,0.01,0,weatherlink.com 1.10,2013-01-20 11:59:00,
2013-01-20 07:14:00,59.7,58.0,30.13,NNE,19,0.0,4.0,93,0.00,,,0.01,0,weatherlink.com 1.10,2013-01-20 12:14:00,
2013-01-20 07:29:00,59.7,58.0,30.13,North,11,4.0,7.0,93,0.00,,,0.01,7,weatherlink.com 1.10,2013-01-20 12:29:00,
2013-01-20 07:44:00,59.8,58.0,30.13,NNE,30,0.0,6.0,93,0.00,,,0.01,19,weatherlink.com 1.10,2013-01-20 12:44:00,
2013-01-20 07:59:00,60.0,58.0,30.14,North,11,2.0,6.0,94,0.00,,,0.01,40,weatherlink.com 1.10,2013-01-20 12:59:00,
2013-01-20 08:14:00,60.3,59.0,30.14,North,360,1.0,5.0,94,0.00,,,0.01,81,weatherlink.com 1.10,2013-01-20 13:14:00,
2013-01-20 08:29:00,60.7,59.0,30.14,North,355,0.0,6.0,94,0.00,,,0.01,98,weatherlink.com 1.10,2013-01-20 13:29:00,
2013-01-20 08:44:00,60.9,59.0,30.14,North,9,4.0,8.0,93,0.00,,,0.01,102,weatherlink.com 1.10,2013-01-20 13:44:00,
2013-01-20 08:59:00,61.2,59.0,30.14,NE,51,2.0,6.0,93,0.00,,,0.01,109,weatherlink.com 1.10,2013-01-20 13:59:00,
2013-01-20 09:15:00,61.6,60.0,30.15,North,360,1.0,4.0,93,0.00,,,0.01,128,weatherlink.com 1.10,2013-01-20 14:15:00,
2013-01-20 09:30:00,61.9,60.0,30.16,NNE,21,3.0,6.0,93,0.00,,,0.01,121,weatherlink.com 1.10,2013-01-20 14:30:00,
2013-01-20 09:45:00,62.2,60.0,30.16,North,360,0.0,6.0,92,0.00,,,0.01,137,weatherlink.com 1.10,2013-01-20 14:45:00,
2013-01-20 10:00:00,62.2,60.0,30.16,NNW,338,2.0,6.0,91,0.00,,,0.01,123,weatherlink.com 1.10,2013-01-20 15:00:00,
2013-01-20 10:15:00,62.3,60.0,30.16,NNW,340,2.0,8.0,91,0.00,,,0.01,199,weatherlink.com 1.10,2013-01-20 15:15:00,
2013-01-20 10:30:00,62.7,60.0,30.16,NNE,26,3.0,9.0,90,0.00,,,0.01,278,weatherlink.com 1.10,2013-01-20 15:30:00,
2013-01-20 10:45:00,63.0,60.0,30.16,NE,34,0.0,8.0,89,0.00,,,0.01,185,weatherlink.com 1.10,2013-01-20 15:45:00,
2013-01-20 11:00:00,63.1,60.0,30.16,North,350,5.0,9.0,89,0.00,,,0.01,304,weatherlink.com 1.10,2013-01-20 16:00:00,
2013-01-20 11:15:00,64.4,61.0,30.15,North,10,5.0,8.0,88,0.00,,,0.01,380,weatherlink.com 1.10,2013-01-20 16:15:00,
2013-01-20 11:30:00,65.4,61.0,30.14,NNE,17,5.0,9.0,85,0.00,,,0.01,341,weatherlink.com 1.10,2013-01-20 16:30:00,
2013-01-20 11:45:00,66.8,62.0,30.14,NE,45,0.0,6.0,84,0.00,,,0.01,246,weatherlink.com 1.10,2013-01-20 16:45:00,
2013-01-20 12:00:00,67.3,62.0,30.13,North,355,8.0,9.0,83,0.00,,,0.01,459,weatherlink.com 1.10,2013-01-20 17:00:00,
2013-01-20 12:15:00,68.8,62.0,30.12,NNW,340,3.0,10.0,80,0.00,,,0.01,610,weatherlink.com 1.10,2013-01-20 17:15:00,
2013-01-20 12:30:00,69.0,62.0,30.11,ENE,75,4.0,9.0,78,0.00,,,0.01,272,weatherlink.com 1.10,2013-01-20 17:30:00,
2013-01-20 12:45:00,68.2,62.0,30.10,North,360,2.0,9.0,80,0.00,,,0.01,301,weatherlink.com 1.10,2013-01-20 17:45:00,
2013-01-20 13:00:00,69.0,62.0,30.09,NE,50,4.0,8.0,78,0.00,,,0.01,476,weatherlink.com 1.10,2013-01-20 18:00:00,
2013-01-20 13:15:00,70.4,62.0,30.07,North,355,8.0,10.0,74,0.00,,,0.01,279,weatherlink.com 1.10,2013-01-20 18:15:00,
2013-01-20 13:30:00,70.5,62.0,30.06,NW,321,3.0,9.0,74,0.00,,,0.01,216,weatherlink.com 1.10,2013-01-20 18:30:00,
2013-01-20 13:45:00,72.9,63.0,30.06,North,360,5.0,8.0,70,0.00,,,0.01,656,weatherlink.com 1.10,2013-01-20 18:45:00,
2013-01-20 14:00:00,71.3,61.0,30.06,NNW,348,7.0,9.0,71,0.00,,,0.01,172,weatherlink.com 1.10,2013-01-20 19:00:00,
2013-01-20 14:15:00,70.6,62.0,30.05,NNE,30,0.0,6.0,73,0.00,,,0.01,125,weatherlink.com 1.10,2013-01-20 19:15:00,
2013-01-20 14:30:00,71.6,61.0,30.05,NNE,30,5.0,12.0,70,0.00,,,0.01,708,weatherlink.com 1.10,2013-01-20 19:30:00,
2013-01-20 14:45:00,72.4,61.0,30.04,ENE,72,3.0,8.0,68,0.00,,,0.01,193,weatherlink.com 1.10,2013-01-20 19:45:00,
2013-01-20 15:00:00,71.2,61.0,30.04,NNE,27,8.0,8.0,70,0.00,,,0.01,116,weatherlink.com 1.10,2013-01-20 20:00:00,
2013-01-20 15:15:00,71.0,62.0,30.04,NNE,24,0.0,4.0,72,0.00,,,0.01,146,weatherlink.com 1.10,2013-01-20 20:15:00,
2013-01-20 15:30:00,70.5,61.0,30.04,ENE,62,1.0,7.0,71,0.00,,,0.01,114,weatherlink.com 1.10,2013-01-20 20:30:00,
2013-01-20 15:45:00,70.4,60.0,30.04,NNE,17,2.0,6.0,70,0.00,,,0.01,132,weatherlink.com 1.10,2013-01-20 20:45:00,
2013-01-20 16:01:00,71.1,60.0,30.04,East,94,3.0,7.0,69,0.00,,,0.01,424,weatherlink.com 1.10,2013-01-20 21:01:00,
2013-01-20 16:15:00,70.5,60.0,30.05,NE,34,0.0,9.0,69,0.00,,,0.01,185,weatherlink.com 1.10,2013-01-20 21:15:00,
2013-01-20 16:30:00,69.7,59.0,30.05,NNE,26,4.0,9.0,69,0.00,,,0.01,105,weatherlink.com 1.10,2013-01-20 21:30:00,
2013-01-20 16:45:00,69.3,59.0,30.06,East,87,0.0,3.0,70,0.00,,,0.01,46,weatherlink.com 1.10,2013-01-20 21:45:00,
2013-01-20 17:00:00,69.1,59.0,30.06,NNE,28,4.0,5.0,70,0.00,,,0.01,91,weatherlink.com 1.10,2013-01-20 22:00:00,
2013-01-20 17:15:00,69.0,59.0,30.05,NE,39,3.0,6.0,70,0.00,,,0.01,30,weatherlink.com 1.10,2013-01-20 22:15:00,
2013-01-20 17:30:00,68.2,59.0,30.06,NE,49,0.0,5.0,72,0.00,,,0.01,19,weatherlink.com 1.10,2013-01-20 22:30:00,
2013-01-20 17:45:00,67.6,58.0,30.06,NNE,21,0.0,5.0,72,0.00,,,0.01,9,weatherlink.com 1.10,2013-01-20 22:45:00,
2013-01-20 18:00:00,67.1,58.0,30.06,ESE,105,0.0,7.0,72,0.00,,,0.01,0,weatherlink.com 1.10,2013-01-20 23:00:00,
2013-01-20 18:15:00,66.6,57.0,30.07,NNE,27,0.0,5.0,72,0.00,,,0.01,0,weatherlink.com 1.10,2013-01-20 23:15:00,
2013-01-20 18:30:00,66.1,57.0,30.07,North,355,0.0,4.0,72,0.00,,,0.01,0,weatherlink.com 1.10,2013-01-20 23:30:00,
2013-01-20 18:46:00,65.6,56.0,30.07,ESE,105,0.0,3.0,72,0.00,,,0.01,0,weatherlink.com 1.10,2013-01-20 23:46:00,
2013-01-20 19:01:00,65.0,56.0,30.07,East,89,2.0,2.0,73,0.00,,,0.01,0,weatherlink.com 1.10,2013-01-21 00:01:00,
2013-01-20 19:16:00,64.5,56.0,30.07,NNE,29,4.0,5.0,73,0.00,,,0.01,0,weatherlink.com 1.10,2013-01-21 00:16:00,
2013-01-20 19:31:00,64.1,55.0,30.07,NNE,20,0.0,5.0,73,0.00,,,0.01,0,weatherlink.com 1.10,2013-01-21 00:31:00,
2013-01-20 19:46:00,63.6,55.0,30.07,NNE,22,0.0,5.0,73,0.00,,,0.01,0,weatherlink.com 1.10,2013-01-21 00:46:00,
2013-01-20 20:01:00,63.2,54.0,30.08,NNE,33,1.0,5.0,73,0.00,,,0.01,0,weatherlink.com 1.10,2013-01-21 01:01:00,
2013-01-20 20:16:00,62.8,54.0,30.08,NNE,29,0.0,5.0,73,0.00,,,0.01,0,weatherlink.com 1.10,2013-01-21 01:16:00,
2013-01-20 20:31:00,62.4,54.0,30.08,NNE,14,0.0,2.0,73,0.00,,,0.01,0,weatherlink.com 1.10,2013-01-21 01:31:00,
2013-01-20 20:46:00,62.1,53.0,30.08,NNE,21,0.0,4.0,73,0.00,,,0.01,0,weatherlink.com 1.10,2013-01-21 01:46:00,
2013-01-20 21:01:00,61.8,53.0,30.08,NNW,331,0.0,3.0,73,0.00,,,0.01,0,weatherlink.com 1.10,2013-01-21 02:01:00,
2013-01-20 21:16:00,61.5,53.0,30.09,NNW,341,0.0,3.0,74,0.00,,,0.01,0,weatherlink.com 1.10,2013-01-21 02:16:00,
2013-01-20 21:31:00,61.1,53.0,30.09,NNW,341,1.0,2.0,75,0.00,,,0.01,0,weatherlink.com 1.10,2013-01-21 02:31:00,
2013-01-20 21:46:00,60.7,53.0,30.09,NNW,341,0.0,1.0,76,0.00,,,0.01,0,weatherlink.com 1.10,2013-01-21 02:46:00,
2013-01-20 22:01:00,60.8,54.0,30.09,NNW,341,1.0,1.0,77,0.00,,,0.01,0,weatherlink.com 1.10,2013-01-21 03:01:00,
2013-01-20 22:14:00,61.1,53.5,30.09,NNW,341,0.0,0.0,76,0.00,,,0.01,0,Wunderground v.1.15,2013-01-21 03:14:00,
2013-01-20 22:46:00,61.3,54.0,30.08,NNW,341,0.0,2.0,76,0.00,,,0.01,0,weatherlink.com 1.10,2013-01-21 03:46:00,
2013-01-20 23:16:00,61.3,54.0,30.08,NNW,340,0.0,1.0,77,0.00,,,0.01,0,weatherlink.com 1.10,2013-01-21 04:16:00,
2013-01-20 23:46:00,61.2,54.0,30.08,NNW,341,0.0,0.0,78,0.00,,,0.01,0,weatherlink.com 1.10,2013-01-21 04:46:00,